Regional Weather Roundup
Issued by NWS Northern Indiana

Home | Current Version | Previous Version | Text Only | Print | Product List | Glossary Off
Versions: 1 2 3 4 5 6 7 8 9 10 11 12 13 14 15 16 17 18 19 20 21 22 23 24 25 26 27 28 29 30 31 32 33 34 35 36 37 38 39 40 41 42 43 44 45 46 47 48 49 50

000
ASUS43 KIWX 261700
RWRIWX

KIWX WEATHER ROUNDUP
NATIONAL WEATHER SERVICE NORTHERN INDIANA
100 PM EDT MON JUN 26 2017

NOTE: "FAIR" INDICATES FEW OR NO CLOUDS BELOW 12,000 FEET WITH NO
SIGNIFICANT WEATHER AND/OR OBSTRUCTIONS TO VISIBILITY.

* THESE STATIONS ARE NOT UNDER NWS QUALITY CONTROL. THEY ALSO MAY NOT
  REPORT WEATHER SUCH AS PRECIPITATION OR FOG.

INZ001>027-261800-
NORTHERN INDIANA

CITY           SKY/WX    TMP DP  RH WIND       PRES   REMARKS
GARY*          PTSUNNY   72  39  30 W23       30.09F
MICHIGAN CITY* PTSUNNY   68  45  42 W12G18    30.10F
KNOX*          PTSUNNY   70  34  26 W14       30.09F
SOUTH BEND     MOSUNNY   68  42  38 NW17      30.09F
ELKHART*       MOSUNNY   68  43  40 W12G17    30.08F
GOSHEN         PTSUNNY   69  45  41 W16       30.08F
MONTICELLO*    MOSUNNY   70  42  36 W7G20     30.11F
FORT WAYNE     PTSUNNY   70  46  42 W16       30.10F
PERU/GRISSOM   MOSUNNY   69  47  44 W14G22    30.10F

$$
INZ028>050-261800-
CENTRAL INDIANA

CITY           SKY/WX    TMP DP  RH WIND       PRES   REMARKS
LAFAYETTE      SUNNY     70  48  45 W15G21    30.12F
KOKOMO*        PTSUNNY   69  47  45 W16       30.13F
MUNCIE*        PTSUNNY   69  47  45 W9        30.13F
INDIANAPOLIS   PTSUNNY   71  47  42 W13       30.14F

$$
MIZ043>046-050>051-056>058-064>065-071>073-077>080-261800-
SOUTHWEST LOWER MICHIGAN

CITY           SKY/WX    TMP DP  RH WIND       PRES   REMARKS
BATTLE CREEK   PTSUNNY   67  42  40 W18       30.06F
BENTON HARBOR  PTSUNNY   68  50  52 W15       30.08F
COLDWATER*     CLOUDY    66  39  36 W15G22    30.07S
HILLSDALE*     CLOUDY    68  41  37 SW16G23   30.06S
HOLLAND        SUNNY     65  47  52 W16G23    30.07S
GRAND RAPIDS   MOSUNNY   67  45  45 W18G30    30.03F
KALAMAZOO      PTSUNNY   66  40  38 NW12      30.06F
STURGIS*       CLOUDY    66  43  43 W14       30.07S
THREE RIVERS*  CLOUDY    69  40  35 W16G28    30.07F

$$
OHZ001>008-015>018-024>025-261800-
NORTHWEST OHIO

CITY           SKY/WX    TMP DP  RH WIND       PRES   REMARKS
DEFIANCE       PTSUNNY   66  44  45 W8G22     30.08F
FINDLAY        MOSUNNY   70  45  40 W16       30.08F
TOLEDO EXPRESS CLOUDY    67  43  41 W16G28    30.06S
TOLEDO METCALF MOSUNNY   72  44  36 W20G26    30.06F
LIMA           MOSUNNY   69  45  41 W21G28    30.11S

$$
AND FOR LAKE MICHIGAN COASTAL AND OPEN LAKE BUOY OBSERVATIONS

STATION/POSITION TEMP    WIND        PRES    VSBY  WAVE
                 AIR SEA DIR/SP/G                  HT/PER
                 (F)     (DEG/KT/KT) (MB)    (MI)  (FT/S)
CALUMET HARBOR    67     290/ 11/ 16 1018.2F
MICHIGAN CITY     65     240/ 10/ 10   N/A
BURNS HARBOR      66     300/ 11/ 14 1019.3F
SOUTH LAKE BUOY   60 61  300/ 12/ 16 1018.4          2/ 4
4 MI NW BRIDGMAN  64 69  270/ 12/ 16 1018.8F         3/ 5
MICHIGAN CITY     65 66  260/  8/ 10   N/A           2/ 4

$$
&&



USA.gov is the U.S. government's official web portal to all federal, state and local government web resources and services.